Powrót do katalogu

METEOR 2-5 DEB

LostPO
NORAD 40213·DEBRIS·🇷🇺 Russia

Wystrzelony Oct 31, 1979 z Plesetsk Cosmodrome

Loading…

Następne Przeloty (najbliższe 24 godziny)

TLE

NieaktualneSource: Space-Track

Epoka: Aug 28, 2022, 07:08 UTC

1 40213U 79095CL  22240.29769771  .00002631  00000-0  10930-2 0  9995
2 40213  81.2066  69.5588 0008489  29.5968  88.6849 14.26213626577481

Śledź METEOR 2-5 DEB w czasie rzeczywistym z AllMySat

Download on the App Store